Location: Newark
(30.1000°N, 109.4667°E)
Time: 11:16:49
(UTC+00:00)

Courier 1B Rocket - Pass Details

Date: 23 February 2020
Orbit: 920 x 1202 km, 28.2° (Epoch: 06 April)

Event Time Altitude Azimuth Distance (km) Brightness Sun altitude
Exits shadow 20:02:23 23° 118° (ESE) 2,049 6.9 -42.1°
Drops below altitude 10° 20:04:49 10° 113° (ESE) 2,868 7.9 -41.5°
Sets 20:07:40 0° 110° (ESE) 3,867 8.7 -40.9°
